Погода в Дружбе

Россия / Республика Адыгея     44°56′02″N   40°22′40″E
темп.,
°C
ветер,
м/с
пор.,
м/с
влажн.,
%
обл.,
%
осадки,
мм/ч
давл.,
гПа
погр.,
м
16 июня, ср
ср1600:00+18з22890 0.0 101011
03:00+17ю00913 0.0 101011
06:00+18зсз349312 0.0 1011154
09:00+20ссз3488100 0.1 1011500
12:00+21зюз338886 0.4 1010480
15:00+24зюз327989 1.0 1009692
18:00+24ю228117 0.3 1007312
21:00+20св11933 0.3 100611
17 июня, чт
чт1700:00+20всв4108686 0.0 1004172
03:00+18сз349523 1.9 100581
06:00+19сз239488 4.0 1007135
09:00+21ссз61086100 4.7 1010553
12:00+23сз677552 0.3 1012919
15:00+24сз676978 0.6 1013950
18:00+21зсз498196 1.3 1014600
21:00+17сз239310 4.1 101737
18 июня, пт
пт1800:00+15зсз11931 0.0 101812
03:00+14юз12945 0.0 101813
06:00+15ююз239218 0.0 101888
09:00+21зсз12750 0.0 1018617
12:00+24с22631 0.0 10181090
15:00+25ссв34590 0.0 10171263
18:00+24св44746 0.1 1016625
21:00+19всв34920 0.1 101763
19 июня, сб
сб1900:00+19всв34930 0.0 101649
03:00+18вюв33950 0.0 101658
06:00+19в38910 0.0 1016225
09:00+25в611700 0.0 1016963
12:00+28в9116265 0.0 10151705
15:00+28в813600 0.0 10141592
18:00+27в815630 0.0 1013904
21:00+24в818540 0.0 1014673
20 июня, вс
вс2000:00+23в818530 0.0 1013723
03:00+21в716580 0.0 1013590
06:00+19в716700 0.0 1013554
09:00+24в814650 0.0 1012801
12:00+27в811590 0.0 10121101
15:00+29вюв710590 0.0 10111415
18:00+29вюв48680 0.0 1010542
21:00+24в512715 0.0 1011288